Regional Weather Roundup
Issued by NWS

Home | Current Version | Previous Version | Text Only | Print | Product List | Glossary On
Versions: 1 2 3 4 5 6 7 8 9 10 11 12 13 14 15 16 17 18 19 20 21 22 23 24 25 26 27 28 29 30 31 32 33 34 35 36 37 38 39 40 41 42 43 44 45 46 47 48 49 50
643
ASUS43 KBIS 281410
RWRND

NORTH DAKOTA REGIONAL WEATHER ROUNDUP
NATIONAL WEATHER SERVICE BISMARCK ND
900 AM CDT TUE MAR 28 2017

NOTE: "FAIR" INDICATES FEW OR NO CLOUDS BELOW 12,000 FEET WITH NO
SIGNIFICANT WEATHER AND/OR OBSTRUCTIONS TO VISIBILITY.


NDZ001>003-009>011-017-281500-
NORTHWEST NORTH DAKOTA

CITY           SKY/WX    TMP DP  RH WIND       PRES   REMARKS
WILLISTON      PTSUNNY   37  35  92 N6        30.06R
MINOT          FOG       35  34  96 E10       30.12R VSB 3/4
MINOT AFB      FOG       33  33  98 SE10      30.11R VSB 1
$$

NDZ018>021-031>035-040>046-281500-
SOUTHWEST NORTH DAKOTA

CITY           SKY/WX    TMP DP  RH WIND       PRES   REMARKS
BISMARCK       FOG       33  32  96 E7        30.11R VSB 1/4
DICKINSON      CLOUDY    32  30  92 NE6       30.04R
GARRISON         N/A     33  33 100 E12       30.09R
HETTINGER ARPT CLOUDY    36  32  85 E5        30.05R
$$

NDZ004>008-012>016-024-026-027-054-281500-
NORTHEAST NORTH DAKOTA

CITY           SKY/WX    TMP DP  RH WIND       PRES   REMARKS
GRAND FORKS    CLOUDY    34  33  96 N6        30.17R
GRND FRKS AFB  CLOUDY    33  33  99 N7        30.18R
DEVILS LAKE    CLOUDY    33  31  92 E6        30.16S
$$

NDZ022-023-025-028>030-036>039-047>053-281500-
SOUTHEAST NORTH DAKOTA

CITY           SKY/WX    TMP DP  RH WIND       PRES   REMARKS
FARGO          FOG       32  32 100 N6        30.15R VSB<1/4
JAMESTOWN      FOG       30  30 100 CALM      30.13R VSB<1/4
$$





USA.gov is the U.S. government's official web portal to all federal, state and local government web resources and services.